Time,TemperatureF,DewpointF,PressureIn,WindDirection,WindDirectionDegrees,WindSpeedMPH,WindSpeedGustMPH,Humidity,HourlyPrecipIn,Conditions,Clouds,dailyrainin,SoftwareType,DateUTC
2012-10-23 00:02:00,43.4,41.2,29.60,SW,225,2.5,4.0,92,0.00,,,0.00,WUHU216HW,2012-10-23 07:02:00,
2012-10-23 00:07:00,43.4,41.2,29.60,WSW,248,1.1,5.6,92,0.00,,,0.00,WUHU216HW,2012-10-23 07:07:00,
2012-10-23 00:12:00,43.4,41.2,29.61,SW,225,1.8,5.6,92,0.00,,,0.00,WUHU216HW,2012-10-23 07:12:00,
2012-10-23 00:17:00,43.4,41.2,29.61,SW,225,2.7,6.5,92,0.00,,,0.00,WUHU216HW,2012-10-23 07:17:00,
2012-10-23 00:22:00,43.6,41.4,29.61,SSE,158,5.8,6.5,92,0.00,,,0.00,WUHU216HW,2012-10-23 07:22:00,
2012-10-23 00:27:00,43.6,41.4,29.61,WSW,248,3.4,7.6,92,0.00,,,0.00,WUHU216HW,2012-10-23 07:27:00,
2012-10-23 00:32:00,43.6,41.4,29.61,SW,225,2.2,7.6,92,0.00,,,0.00,WUHU216HW,2012-10-23 07:32:00,
2012-10-23 00:37:00,43.6,41.4,29.61,SW,225,2.5,3.4,92,0.00,,,0.00,WUHU216HW,2012-10-23 07:37:00,
2012-10-23 00:42:00,43.6,41.4,29.62,SW,225,1.3,3.6,92,0.00,,,0.00,WUHU216HW,2012-10-23 07:42:00,
2012-10-23 00:47:00,43.6,41.4,29.62,SW,225,1.1,3.6,92,0.00,,,0.00,WUHU216HW,2012-10-23 07:47:00,
2012-10-23 00:52:00,43.6,41.4,29.62,SW,225,2.7,4.0,92,0.00,,,0.00,WUHU216HW,2012-10-23 07:52:00,
2012-10-23 00:57:00,43.6,41.4,29.62,SW,225,1.8,4.0,92,0.00,,,0.00,WUHU216HW,2012-10-23 07:57:00,
2012-10-23 01:02:00,43.6,41.4,29.62,SW,225,2.5,4.7,92,0.00,,,0.00,WUHU216HW,2012-10-23 08:02:00,
2012-10-23 01:07:00,43.6,41.4,29.62,SW,225,4.7,4.7,92,0.00,,,0.00,WUHU216HW,2012-10-23 08:07:00,
2012-10-23 01:12:00,43.4,41.2,29.62,WSW,248,3.4,4.9,92,0.00,,,0.00,WUHU216HW,2012-10-23 08:12:00,
2012-10-23 01:17:00,43.4,41.2,29.62,West,270,2.5,4.9,92,0.00,,,0.00,WUHU216HW,2012-10-23 08:17:00,
2012-10-23 01:22:00,43.4,41.2,29.63,West,270,1.8,4.0,92,0.00,,,0.00,WUHU216HW,2012-10-23 08:22:00,
2012-10-23 01:27:00,43.4,41.2,29.63,SW,225,1.8,3.4,92,0.00,,,0.00,WUHU216HW,2012-10-23 08:27:00,
2012-10-23 01:32:00,43.4,41.2,29.63,WSW,248,2.2,4.7,92,0.00,,,0.00,WUHU216HW,2012-10-23 08:32:00,
2012-10-23 01:37:00,43.4,41.2,29.63,SSW,203,4.7,5.1,92,0.00,,,0.00,WUHU216HW,2012-10-23 08:37:00,
2012-10-23 01:42:00,43.4,41.2,29.63,SW,225,2.0,5.1,92,0.00,,,0.00,WUHU216HW,2012-10-23 08:42:00,
2012-10-23 01:47:00,43.4,41.2,29.63,WSW,248,6.3,6.3,92,0.00,,,0.00,WUHU216HW,2012-10-23 08:47:00,
2012-10-23 01:52:00,43.4,41.2,29.63,SSW,203,3.4,6.3,92,0.00,,,0.00,WUHU216HW,2012-10-23 08:52:00,
2012-10-23 01:57:00,43.2,41.0,29.63,SW,225,1.8,6.3,92,0.00,,,0.00,WUHU216HW,2012-10-23 08:57:00,
2012-10-23 02:02:00,43.2,41.0,29.63,WSW,248,2.5,4.9,92,0.00,,,0.00,WUHU216HW,2012-10-23 09:02:00,
2012-10-23 02:07:00,43.2,41.0,29.64,SW,225,0.9,4.7,92,0.00,,,0.00,WUHU216HW,2012-10-23 09:07:00,
2012-10-23 02:12:00,43.2,41.0,29.64,SW,225,2.5,4.3,92,0.00,,,0.00,WUHU216HW,2012-10-23 09:12:00,
2012-10-23 02:17:00,43.2,41.0,29.64,WSW,248,3.4,4.0,92,0.00,,,0.00,WUHU216HW,2012-10-23 09:17:00,
2012-10-23 02:22:00,43.0,40.9,29.65,SSW,203,2.2,4.3,92,0.00,,,0.00,WUHU216HW,2012-10-23 09:22:00,
2012-10-23 02:27:00,43.0,40.9,29.65,WSW,248,1.8,6.3,92,0.00,,,0.00,WUHU216HW,2012-10-23 09:27:00,
2012-10-23 02:32:00,43.0,40.9,29.65,SW,225,4.5,6.3,92,0.00,,,0.00,WUHU216HW,2012-10-23 09:32:00,
2012-10-23 02:37:00,43.0,40.9,29.65,SW,225,2.7,4.5,92,0.00,,,0.00,WUHU216HW,2012-10-23 09:37:00,
2012-10-23 02:42:00,43.0,40.9,29.65,West,270,1.6,5.6,92,0.00,,,0.00,WUHU216HW,2012-10-23 09:42:00,
2012-10-23 02:47:00,43.2,41.0,29.65,WSW,248,1.1,5.6,92,0.00,,,0.00,WUHU216HW,2012-10-23 09:47:00,
2012-10-23 02:52:00,43.2,41.0,29.65,SSW,203,1.8,4.0,92,0.00,,,0.00,WUHU216HW,2012-10-23 09:52:00,
2012-10-23 02:57:00,43.2,41.0,29.65,WSW,248,1.1,4.0,92,0.01,,,0.01,WUHU216HW,2012-10-23 09:57:00,
2012-10-23 03:02:00,43.2,41.0,29.65,SW,225,0.9,3.4,92,0.01,,,0.01,WUHU216HW,2012-10-23 10:02:00,
2012-10-23 03:07:00,43.2,41.0,29.65,SW,225,2.7,3.8,92,0.01,,,0.01,WUHU216HW,2012-10-23 10:07:00,
2012-10-23 03:12:00,43.2,41.0,29.65,SW,225,0.4,3.8,92,0.01,,,0.01,WUHU216HW,2012-10-23 10:12:00,
2012-10-23 03:17:00,43.2,41.0,29.65,SW,225,1.6,2.9,92,0.01,,,0.01,WUHU216HW,2012-10-23 10:17:00,
2012-10-23 03:22:00,43.0,40.9,29.66,WSW,248,2.5,2.9,92,0.01,,,0.01,WUHU216HW,2012-10-23 10:22:00,
2012-10-23 03:27:00,43.0,40.9,29.66,WSW,248,2.9,4.0,92,0.01,,,0.01,WUHU216HW,2012-10-23 10:27:00,
2012-10-23 03:32:00,43.0,40.9,29.65,WSW,248,1.8,4.0,92,0.01,,,0.01,WUHU216HW,2012-10-23 10:32:00,
2012-10-23 03:37:00,42.8,40.7,29.66,SW,225,1.6,4.7,92,0.01,,,0.01,WUHU216HW,2012-10-23 10:37:00,
2012-10-23 03:42:00,42.8,40.7,29.66,West,270,1.3,4.7,92,0.01,,,0.01,WUHU216HW,2012-10-23 10:42:00,
2012-10-23 03:47:00,42.8,40.7,29.66,WSW,248,1.8,4.0,92,0.01,,,0.01,WUHU216HW,2012-10-23 10:47:00,
2012-10-23 03:52:00,42.8,40.7,29.66,SW,225,2.5,3.4,92,0.00,,,0.01,WUHU216HW,2012-10-23 10:52:00,
2012-10-23 03:57:00,42.8,40.7,29.66,SW,225,2.0,4.7,92,0.00,,,0.01,WUHU216HW,2012-10-23 10:57:00,
2012-10-23 04:02:00,42.8,40.7,29.67,SSW,203,1.8,4.7,92,0.00,,,0.01,WUHU216HW,2012-10-23 11:02:00,
2012-10-23 04:07:00,42.8,40.7,29.66,SSW,203,1.8,4.5,92,0.00,,,0.01,WUHU216HW,2012-10-23 11:07:00,
2012-10-23 04:12:00,42.8,40.7,29.67,SSW,203,2.9,5.1,92,0.00,,,0.01,WUHU216HW,2012-10-23 11:12:00,
2012-10-23 04:17:00,42.8,40.7,29.67,SW,225,1.6,5.4,92,0.00,,,0.01,WUHU216HW,2012-10-23 11:17:00,
2012-10-23 04:22:00,42.8,40.7,29.67,SW,225,0.7,5.4,92,0.00,,,0.01,WUHU216HW,2012-10-23 11:22:00,
2012-10-23 04:27:00,42.8,41.0,29.67,WSW,248,2.7,4.9,93,0.00,,,0.01,WUHU216HW,2012-10-23 11:27:00,
2012-10-23 04:32:00,42.7,40.8,29.67,SW,225,2.5,4.9,93,0.00,,,0.01,WUHU216HW,2012-10-23 11:32:00,
2012-10-23 04:37:00,42.7,40.5,29.67,WSW,248,1.3,3.1,92,0.00,,,0.01,WUHU216HW,2012-10-23 11:37:00,
2012-10-23 04:42:00,42.7,40.5,29.67,SW,225,1.8,6.3,92,0.00,,,0.01,WUHU216HW,2012-10-23 11:42:00,
2012-10-23 04:47:00,42.7,40.5,29.67,SW,225,2.5,6.3,92,0.00,,,0.01,WUHU216HW,2012-10-23 11:47:00,
2012-10-23 04:52:00,42.5,40.3,29.67,SSW,203,3.4,5.8,92,0.00,,,0.01,WUHU216HW,2012-10-23 11:52:00,
2012-10-23 04:57:00,42.5,40.3,29.68,WSW,248,1.1,4.9,92,0.00,,,0.01,WUHU216HW,2012-10-23 11:57:00,
2012-10-23 05:02:00,42.5,40.3,29.68,SW,225,2.5,3.4,92,0.00,,,0.01,WUHU216HW,2012-10-23 12:02:00,
2012-10-23 05:07:00,42.5,40.3,29.68,SW,225,1.8,2.9,92,0.00,,,0.01,WUHU216HW,2012-10-23 12:07:00,
2012-10-23 05:12:00,42.3,40.1,29.68,SW,225,2.2,2.5,92,0.00,,,0.01,WUHU216HW,2012-10-23 12:12:00,
2012-10-23 05:17:00,42.1,40.0,29.68,SW,225,1.8,5.8,92,0.00,,,0.01,WUHU216HW,2012-10-23 12:17:00,
2012-10-23 05:22:00,42.1,40.0,29.68,SW,225,2.9,5.8,92,0.00,,,0.01,WUHU216HW,2012-10-23 12:22:00,
2012-10-23 05:27:00,42.1,40.2,29.68,SW,225,1.1,5.6,93,0.00,,,0.01,WUHU216HW,2012-10-23 12:27:00,
2012-10-23 05:32:00,42.1,40.2,29.68,SSW,203,2.7,4.3,93,0.00,,,0.01,WUHU216HW,2012-10-23 12:32:00,
2012-10-23 05:37:00,42.1,40.2,29.68,SW,225,3.6,5.1,93,0.00,,,0.01,WUHU216HW,2012-10-23 12:37:00,
2012-10-23 05:42:00,42.1,40.2,29.69,SSW,203,2.0,5.1,93,0.00,,,0.01,WUHU216HW,2012-10-23 12:42:00,
2012-10-23 05:47:00,42.1,40.2,29.69,SW,225,3.6,4.5,93,0.00,,,0.01,WUHU216HW,2012-10-23 12:47:00,
2012-10-23 05:52:00,42.1,40.2,29.69,WSW,248,1.1,3.6,93,0.00,,,0.01,WUHU216HW,2012-10-23 12:52:00,
2012-10-23 05:57:00,42.1,40.2,29.70,WSW,248,3.4,3.6,93,0.00,,,0.01,WUHU216HW,2012-10-23 12:57:00,
2012-10-23 06:02:00,42.1,40.2,29.69,WSW,248,2.7,3.4,93,0.00,,,0.01,WUHU216HW,2012-10-23 13:02:00,
2012-10-23 06:07:00,42.1,40.2,29.70,SW,225,0.4,3.4,93,0.00,,,0.01,WUHU216HW,2012-10-23 13:07:00,
2012-10-23 06:12:00,42.1,40.2,29.70,SW,225,0.0,2.7,93,0.00,,,0.01,WUHU216HW,2012-10-23 13:12:00,
2012-10-23 06:17:00,42.1,40.2,29.70,WSW,248,0.7,1.6,93,0.00,,,0.01,WUHU216HW,2012-10-23 13:17:00,
2012-10-23 06:22:00,42.1,40.2,29.71,SW,225,0.4,1.8,93,0.00,,,0.01,WUHU216HW,2012-10-23 13:22:00,
2012-10-23 06:27:00,42.1,40.2,29.70,SW,225,1.8,2.5,93,0.00,,,0.01,WUHU216HW,2012-10-23 13:27:00,
2012-10-23 06:32:00,42.1,40.2,29.71,WSW,248,0.9,3.4,93,0.00,,,0.01,WUHU216HW,2012-10-23 13:32:00,
2012-10-23 06:37:00,42.1,40.2,29.71,West,270,1.1,3.4,93,0.00,,,0.01,WUHU216HW,2012-10-23 13:37:00,
2012-10-23 06:42:00,42.1,40.2,29.71,SW,225,0.9,6.5,93,0.00,,,0.01,WUHU216HW,2012-10-23 13:42:00,
2012-10-23 06:47:00,42.1,40.2,29.71,SSW,203,2.2,6.5,93,0.00,,,0.01,WUHU216HW,2012-10-23 13:47:00,
2012-10-23 06:52:00,42.3,40.4,29.71,SW,225,1.6,4.0,93,0.00,,,0.01,WUHU216HW,2012-10-23 13:52:00,
2012-10-23 06:57:00,42.3,40.4,29.71,WSW,248,0.9,3.1,93,0.00,,,0.01,WUHU216HW,2012-10-23 13:57:00,
2012-10-23 07:02:00,42.3,40.4,29.71,SW,225,2.7,3.1,93,0.00,,,0.01,WUHU216HW,2012-10-23 14:02:00,
2012-10-23 07:07:00,42.1,40.2,29.71,SW,225,2.7,3.4,93,0.00,,,0.01,WUHU216HW,2012-10-23 14:07:00,
2012-10-23 07:12:00,42.3,40.4,29.71,WSW,248,2.7,3.4,93,0.00,,,0.01,WUHU216HW,2012-10-23 14:12:00,
2012-10-23 07:17:00,42.1,40.2,29.72,SW,225,2.5,6.0,93,0.00,,,0.01,WUHU216HW,2012-10-23 14:17:00,
2012-10-23 07:22:00,42.1,40.2,29.72,SW,225,1.8,6.0,93,0.00,,,0.01,WUHU216HW,2012-10-23 14:22:00,
2012-10-23 07:27:00,42.3,40.4,29.72,SW,225,2.5,4.0,93,0.00,,,0.01,WUHU216HW,2012-10-23 14:27:00,
2012-10-23 07:32:00,42.1,40.2,29.72,SW,225,2.9,4.0,93,0.00,,,0.01,WUHU216HW,2012-10-23 14:32:00,
2012-10-23 07:37:00,42.1,40.2,29.72,SW,225,2.5,5.1,93,0.00,,,0.01,WUHU216HW,2012-10-23 14:37:00,
2012-10-23 07:42:00,42.1,40.2,29.73,WSW,248,3.8,5.1,93,0.00,,,0.01,WUHU216HW,2012-10-23 14:42:00,
2012-10-23 07:47:00,42.1,40.2,29.73,WSW,248,3.4,7.6,93,0.00,,,0.01,WUHU216HW,2012-10-23 14:47:00,
2012-10-23 07:52:00,42.1,40.2,29.73,SW,225,2.2,7.6,93,0.00,,,0.01,WUHU216HW,2012-10-23 14:52:00,
2012-10-23 07:57:00,41.9,40.1,29.73,SW,225,2.0,3.8,93,0.00,,,0.01,WUHU216HW,2012-10-23 14:57:00,
2012-10-23 08:02:00,41.9,40.1,29.73,WSW,248,2.5,3.8,93,0.00,,,0.01,WUHU216HW,2012-10-23 15:02:00,
2012-10-23 08:07:00,41.9,40.1,29.73,SW,225,1.1,2.5,93,0.00,,,0.01,WUHU216HW,2012-10-23 15:07:00,
2012-10-23 08:12:00,42.1,40.2,29.73,SW,225,1.6,2.5,93,0.00,,,0.01,WUHU216HW,2012-10-23 15:12:00,
2012-10-23 08:17:00,42.1,40.2,29.73,WSW,248,1.3,4.0,93,0.00,,,0.01,WUHU216HW,2012-10-23 15:17:00,
2012-10-23 08:22:00,42.1,40.2,29.73,West,270,1.8,4.0,93,0.00,,,0.01,WUHU216HW,2012-10-23 15:22:00,
2012-10-23 08:27:00,42.1,40.2,29.73,WSW,248,1.8,2.9,93,0.00,,,0.01,WUHU216HW,2012-10-23 15:27:00,
2012-10-23 08:32:00,42.3,40.4,29.74,SSW,203,0.0,2.9,93,0.00,,,0.01,WUHU216HW,2012-10-23 15:32:00,
2012-10-23 08:37:00,42.3,40.4,29.74,SW,225,1.1,2.0,93,0.00,,,0.01,WUHU216HW,2012-10-23 15:37:00,
2012-10-23 08:42:00,42.5,40.6,29.74,West,270,0.4,2.0,93,0.00,,,0.01,WUHU216HW,2012-10-23 15:42:00,
2012-10-23 08:47:00,42.8,41.0,29.74,WNW,293,1.1,2.5,93,0.00,,,0.01,WUHU216HW,2012-10-23 15:47:00,
2012-10-23 08:52:00,43.0,41.1,29.75,SSW,203,1.6,4.5,93,0.00,,,0.01,WUHU216HW,2012-10-23 15:52:00,
2012-10-23 08:57:00,43.4,41.5,29.75,WSW,248,2.5,4.5,93,0.00,,,0.01,WUHU216HW,2012-10-23 15:57:00,
2012-10-23 09:02:00,43.6,41.7,29.75,SW,225,2.9,6.3,93,0.00,,,0.01,WUHU216HW,2012-10-23 16:02:00,
2012-10-23 09:07:00,44.1,42.2,29.75,SW,225,3.1,6.3,93,0.00,,,0.01,WUHU216HW,2012-10-23 16:07:00,
2012-10-23 09:12:00,44.3,42.4,29.75,SW,225,3.4,6.5,93,0.00,,,0.01,WUHU216HW,2012-10-23 16:12:00,
2012-10-23 09:17:00,44.5,42.6,29.75,West,270,1.8,6.5,93,0.00,,,0.01,WUHU216HW,2012-10-23 16:17:00,
2012-10-23 09:22:00,44.6,42.8,29.75,SW,225,4.3,5.4,93,0.00,,,0.01,WUHU216HW,2012-10-23 16:22:00,
2012-10-23 09:27:00,44.6,42.8,29.76,WSW,248,3.4,4.7,93,0.00,,,0.01,WUHU216HW,2012-10-23 16:27:00,
2012-10-23 09:32:00,44.8,42.9,29.76,WSW,248,1.8,5.1,93,0.00,,,0.01,WUHU216HW,2012-10-23 16:32:00,
2012-10-23 09:37:00,44.6,42.5,29.76,SW,225,5.4,5.4,92,0.00,,,0.01,WUHU216HW,2012-10-23 16:37:00,
2012-10-23 09:42:00,44.6,42.5,29.76,SW,225,2.2,5.4,92,0.00,,,0.01,WUHU216HW,2012-10-23 16:42:00,
2012-10-23 09:47:00,44.6,42.5,29.76,SW,225,4.5,6.3,92,0.00,,,0.01,WUHU216HW,2012-10-23 16:47:00,
2012-10-23 09:52:00,44.6,42.5,29.76,WSW,248,3.8,6.3,92,0.00,,,0.01,WUHU216HW,2012-10-23 16:52:00,
2012-10-23 09:57:00,44.5,42.0,29.76,SSW,203,4.7,5.1,91,0.00,,,0.01,WUHU216HW,2012-10-23 16:57:00,
2012-10-23 10:02:00,44.6,42.2,29.76,West,270,2.9,5.1,91,0.00,,,0.01,WUHU216HW,2012-10-23 17:02:00,
2012-10-23 10:07:00,44.5,42.0,29.76,SSW,203,4.0,5.1,91,0.00,,,0.01,WUHU216HW,2012-10-23 17:07:00,
2012-10-23 10:12:00,44.6,42.2,29.76,SW,225,4.0,6.7,91,0.00,,,0.01,WUHU216HW,2012-10-23 17:12:00,
2012-10-23 10:17:00,44.8,42.4,29.76,SW,225,3.8,6.7,91,0.00,,,0.01,WUHU216HW,2012-10-23 17:17:00,
2012-10-23 10:22:00,44.8,42.4,29.76,WNW,293,3.4,4.9,91,0.00,,,0.01,WUHU216HW,2012-10-23 17:22:00,
2012-10-23 10:27:00,45.0,42.6,29.76,SW,225,2.5,4.0,91,0.00,,,0.01,WUHU216HW,2012-10-23 17:27:00,
2012-10-23 10:32:00,45.2,42.8,29.76,SW,225,2.5,4.0,91,0.00,,,0.01,WUHU216HW,2012-10-23 17:32:00,
2012-10-23 10:37:00,45.2,42.8,29.76,WSW,248,2.5,4.0,91,0.00,,,0.01,WUHU216HW,2012-10-23 17:37:00,
2012-10-23 10:42:00,45.4,42.9,29.76,WSW,248,5.8,5.8,91,0.00,,,0.01,WUHU216HW,2012-10-23 17:42:00,
2012-10-23 10:47:00,45.5,43.4,29.77,SSW,203,5.4,5.8,92,0.00,,,0.01,WUHU216HW,2012-10-23 17:47:00,
2012-10-23 10:52:00,45.5,43.1,29.77,SW,225,3.4,5.8,91,0.00,,,0.01,WUHU216HW,2012-10-23 17:52:00,
2012-10-23 10:57:00,45.7,43.3,29.76,SSE,158,1.1,5.4,91,0.00,,,0.01,WUHU216HW,2012-10-23 17:57:00,
2012-10-23 11:02:00,45.9,43.5,29.77,SSW,203,3.1,4.0,91,0.00,,,0.01,WUHU216HW,2012-10-23 18:02:00,
2012-10-23 11:07:00,46.1,43.7,29.77,SW,225,2.7,4.0,91,0.00,,,0.01,WUHU216HW,2012-10-23 18:07:00,
2012-10-23 11:12:00,46.3,43.8,29.77,SW,225,3.1,3.4,91,0.00,,,0.01,WUHU216HW,2012-10-23 18:12:00,
2012-10-23 11:17:00,46.4,44.0,29.77,SW,225,0.2,6.0,91,0.00,,,0.01,WUHU216HW,2012-10-23 18:17:00,
2012-10-23 11:22:00,46.8,44.4,29.77,SSE,158,1.3,6.0,91,0.00,,,0.01,WUHU216HW,2012-10-23 18:22:00,
2012-10-23 11:27:00,46.8,44.4,29.77,WSW,248,4.7,6.3,91,0.00,,,0.01,WUHU216HW,2012-10-23 18:27:00,
2012-10-23 11:32:00,47.0,44.6,29.77,SSW,203,4.0,6.3,91,0.00,,,0.01,WUHU216HW,2012-10-23 18:32:00,
2012-10-23 11:37:00,47.0,44.3,29.77,East,90,2.0,5.6,90,0.00,,,0.01,WUHU216HW,2012-10-23 18:37:00,
2012-10-23 11:42:00,47.2,44.5,29.77,SW,225,2.0,6.5,90,0.00,,,0.01,WUHU216HW,2012-10-23 18:42:00,
2012-10-23 11:47:00,47.3,44.6,29.77,SW,225,2.5,6.5,90,0.00,,,0.01,WUHU216HW,2012-10-23 18:47:00,
2012-10-23 11:52:00,47.5,44.8,29.77,WSW,248,4.0,5.1,90,0.00,,,0.01,WUHU216HW,2012-10-23 18:52:00,
2012-10-23 11:57:00,47.7,44.4,29.77,SE,135,3.1,6.3,88,0.00,,,0.01,WUHU216HW,2012-10-23 18:57:00,
2012-10-23 12:02:00,47.9,44.6,29.77,WSW,248,4.3,8.5,88,0.00,,,0.01,WUHU216HW,2012-10-23 19:02:00,
2012-10-23 12:07:00,47.9,44.6,29.78,SSW,203,4.7,8.5,88,0.00,,,0.01,WUHU216HW,2012-10-23 19:07:00,
2012-10-23 12:12:00,47.9,44.6,29.78,SW,225,1.8,7.6,88,0.00,,,0.01,WUHU216HW,2012-10-23 19:12:00,
2012-10-23 12:17:00,47.9,44.6,29.78,WSW,248,1.1,7.6,88,0.00,,,0.01,WUHU216HW,2012-10-23 19:17:00,
2012-10-23 12:22:00,48.1,44.7,29.78,SW,225,1.1,4.0,88,0.00,,,0.01,WUHU216HW,2012-10-23 19:22:00,
2012-10-23 12:27:00,48.1,44.7,29.78,SW,225,6.3,6.3,88,0.00,,,0.01,WUHU216HW,2012-10-23 19:27:00,
2012-10-23 12:32:00,48.1,44.7,29.78,SW,225,1.3,7.4,88,0.00,,,0.01,WUHU216HW,2012-10-23 19:32:00,
2012-10-23 12:37:00,47.9,44.6,29.78,SW,225,4.0,7.4,88,0.00,,,0.01,WUHU216HW,2012-10-23 19:37:00,
2012-10-23 12:42:00,48.1,44.7,29.78,WSW,248,0.4,4.0,88,0.00,,,0.01,WUHU216HW,2012-10-23 19:42:00,
2012-10-23 12:47:00,47.9,44.6,29.78,SW,225,2.9,4.0,88,0.00,,,0.01,WUHU216HW,2012-10-23 19:47:00,
2012-10-23 12:52:00,48.1,44.4,29.78,SE,135,1.8,6.9,87,0.00,,,0.01,WUHU216HW,2012-10-23 19:52:00,
2012-10-23 12:57:00,48.2,44.6,29.78,SSE,158,2.9,6.9,87,0.00,,,0.01,WUHU216HW,2012-10-23 19:57:00,
2012-10-23 13:02:00,48.4,44.7,29.78,SE,135,2.5,4.7,87,0.00,,,0.01,WUHU216HW,2012-10-23 20:02:00,
2012-10-23 13:07:00,48.8,45.1,29.78,SSW,203,3.8,4.7,87,0.00,,,0.01,WUHU216HW,2012-10-23 20:07:00,
2012-10-23 13:12:00,49.3,45.5,29.78,SSE,158,4.0,8.3,87,0.00,,,0.01,WUHU216HW,2012-10-23 20:12:00,
2012-10-23 13:17:00,49.7,45.6,29.78,SSW,203,6.5,8.3,86,0.00,,,0.01,WUHU216HW,2012-10-23 20:17:00,
2012-10-23 13:22:00,50.0,45.9,29.78,SW,225,3.8,7.8,86,0.00,,,0.01,WUHU216HW,2012-10-23 20:22:00,
2012-10-23 13:27:00,50.6,46.2,29.78,West,270,6.3,9.8,85,0.00,,,0.01,WUHU216HW,2012-10-23 20:27:00,
2012-10-23 13:32:00,50.4,45.4,29.78,West,270,3.6,9.8,83,0.00,,,0.01,WUHU216HW,2012-10-23 20:32:00,
2012-10-23 13:37:00,50.2,45.2,29.78,SSW,203,6.3,7.6,83,0.00,,,0.01,WUHU216HW,2012-10-23 20:37:00,
2012-10-23 13:42:00,50.0,45.4,29.78,West,270,3.8,7.8,84,0.00,,,0.01,WUHU216HW,2012-10-23 20:42:00,
2012-10-23 13:47:00,50.0,45.0,29.78,SW,225,6.9,14.8,83,0.00,,,0.01,WUHU216HW,2012-10-23 20:47:00,
2012-10-23 13:52:00,50.0,45.0,29.78,WSW,248,5.4,14.8,83,0.00,,,0.01,WUHU216HW,2012-10-23 20:52:00,
2012-10-23 13:57:00,50.2,45.2,29.78,SW,225,6.0,10.1,83,0.00,,,0.01,WUHU216HW,2012-10-23 20:57:00,
2012-10-23 14:02:00,50.0,45.0,29.78,SW,225,2.0,7.6,83,0.00,,,0.01,WUHU216HW,2012-10-23 21:02:00,
2012-10-23 14:07:00,49.9,44.6,29.79,WSW,248,4.0,9.2,82,0.00,,,0.01,WUHU216HW,2012-10-23 21:07:00,
2012-10-23 14:12:00,49.9,44.8,29.78,WSW,248,4.7,9.8,83,0.00,,,0.01,WUHU216HW,2012-10-23 21:12:00,
2012-10-23 14:17:00,49.9,45.2,29.78,WSW,248,5.8,9.8,84,0.00,,,0.01,WUHU216HW,2012-10-23 21:17:00,
2012-10-23 14:22:00,49.7,44.6,29.78,SW,225,6.9,10.5,83,0.00,,,0.01,WUHU216HW,2012-10-23 21:22:00,
2012-10-23 14:27:00,49.7,44.6,29.78,SSW,203,4.7,10.5,83,0.00,,,0.01,WUHU216HW,2012-10-23 21:27:00,
2012-10-23 14:32:00,49.5,44.2,29.78,SW,225,3.4,8.5,82,0.00,,,0.01,WUHU216HW,2012-10-23 21:32:00,
2012-10-23 14:37:00,49.5,44.5,29.79,SSW,203,3.4,8.5,83,0.00,,,0.01,WUHU216HW,2012-10-23 21:37:00,
2012-10-23 14:42:00,49.3,44.3,29.78,SW,225,3.4,5.6,83,0.00,,,0.01,WUHU216HW,2012-10-23 21:42:00,
2012-10-23 14:47:00,49.3,44.3,29.79,SW,225,2.2,5.6,83,0.00,,,0.01,WUHU216HW,2012-10-23 21:47:00,
2012-10-23 14:52:00,49.3,44.0,29.79,SE,135,4.3,8.5,82,0.00,,,0.01,WUHU216HW,2012-10-23 21:52:00,
2012-10-23 14:57:00,49.3,43.7,29.79,WSW,248,3.4,8.5,81,0.00,,,0.01,WUHU216HW,2012-10-23 21:57:00,
2012-10-23 15:02:00,49.3,44.0,29.79,West,270,6.9,8.3,82,0.00,,,0.01,WUHU216HW,2012-10-23 22:02:00,
2012-10-23 15:07:00,49.3,44.0,29.79,WSW,248,1.6,7.6,82,0.00,,,0.01,WUHU216HW,2012-10-23 22:07:00,
2012-10-23 15:12:00,49.5,44.2,29.79,SSW,203,2.5,7.8,82,0.00,,,0.01,WUHU216HW,2012-10-23 22:12:00,
2012-10-23 15:17:00,49.7,44.4,29.79,SSW,203,4.3,7.8,82,0.00,,,0.01,WUHU216HW,2012-10-23 22:17:00,
2012-10-23 15:22:00,49.7,44.4,29.79,SW,225,7.6,7.6,82,0.00,,,0.01,WUHU216HW,2012-10-23 22:22:00,
2012-10-23 15:27:00,49.7,44.4,29.79,SW,225,2.5,8.5,82,0.00,,,0.01,WUHU216HW,2012-10-23 22:27:00,
2012-10-23 15:32:00,49.7,44.4,29.79,West,270,4.3,8.5,82,0.00,,,0.01,WUHU216HW,2012-10-23 22:32:00,
2012-10-23 15:37:00,49.5,44.2,29.79,SSE,158,2.0,6.9,82,0.00,,,0.01,WUHU216HW,2012-10-23 22:37:00,
2012-10-23 15:42:00,49.3,44.0,29.79,SW,225,4.9,6.9,82,0.00,,,0.01,WUHU216HW,2012-10-23 22:42:00,
2012-10-23 15:47:00,49.3,44.0,29.79,SW,225,2.5,7.4,82,0.00,,,0.01,WUHU216HW,2012-10-23 22:47:00,
2012-10-23 15:52:00,49.1,43.8,29.79,SW,225,4.7,7.4,82,0.00,,,0.01,WUHU216HW,2012-10-23 22:52:00,
2012-10-23 15:57:00,49.0,43.7,29.79,SW,225,5.1,6.9,82,0.00,,,0.01,WUHU216HW,2012-10-23 22:57:00,
2012-10-23 16:02:00,48.8,43.5,29.79,SSW,203,4.7,5.1,82,0.00,,,0.01,WUHU216HW,2012-10-23 23:02:00,
2012-10-23 16:07:00,48.6,43.3,29.79,South,180,7.8,7.8,82,0.00,,,0.01,WUHU216HW,2012-10-23 23:07:00,
2012-10-23 16:12:00,48.6,43.3,29.80,West,270,3.4,7.8,82,0.00,,,0.01,WUHU216HW,2012-10-23 23:12:00,
2012-10-23 16:17:00,48.2,42.7,29.80,SSE,158,1.8,7.8,81,0.00,,,0.01,WUHU216HW,2012-10-23 23:17:00,
2012-10-23 16:22:00,48.2,42.9,29.80,SW,225,2.0,5.4,82,0.00,,,0.01,WUHU216HW,2012-10-23 23:22:00,
2012-10-23 16:27:00,48.2,42.9,29.80,SW,225,1.1,6.0,82,0.00,,,0.01,WUHU216HW,2012-10-23 23:27:00,
2012-10-23 16:32:00,48.2,42.9,29.80,SW,225,1.6,6.0,82,0.00,,,0.01,WUHU216HW,2012-10-23 23:32:00,
2012-10-23 16:37:00,48.2,42.9,29.80,South,180,0.9,4.3,82,0.00,,,0.01,WUHU216HW,2012-10-23 23:37:00,
2012-10-23 16:42:00,48.2,42.9,29.80,West,270,3.6,4.3,82,0.00,,,0.01,WUHU216HW,2012-10-23 23:42:00,
2012-10-23 16:47:00,48.2,42.9,29.80,WSW,248,2.7,6.3,82,0.00,,,0.01,WUHU216HW,2012-10-23 23:47:00,
2012-10-23 16:52:00,48.2,42.9,29.80,WSW,248,4.0,6.3,82,0.00,,,0.01,WUHU216HW,2012-10-23 23:52:00,
2012-10-23 16:57:00,48.2,43.3,29.80,SSW,203,0.4,6.5,83,0.00,,,0.01,WUHU216HW,2012-10-23 23:57:00,
2012-10-23 17:02:00,48.1,43.1,29.80,SSW,203,3.8,6.5,83,0.00,,,0.01,WUHU216HW,2012-10-24 00:02:00,
2012-10-23 17:07:00,48.1,43.1,29.80,SW,225,3.1,4.7,83,0.00,,,0.01,WUHU216HW,2012-10-24 00:07:00,
2012-10-23 17:12:00,48.1,43.1,29.81,SW,225,0.0,3.8,83,0.00,,,0.01,WUHU216HW,2012-10-24 00:12:00,
2012-10-23 17:17:00,47.9,42.9,29.81,SW,225,2.9,3.4,83,0.00,,,0.01,WUHU216HW,2012-10-24 00:17:00,
2012-10-23 17:22:00,47.9,42.9,29.81,SW,225,2.9,4.3,83,0.00,,,0.01,WUHU216HW,2012-10-24 00:22:00,
2012-10-23 17:27:00,47.7,42.8,29.81,SSW,203,2.5,4.7,83,0.00,,,0.01,WUHU216HW,2012-10-24 00:27:00,
2012-10-23 17:32:00,47.5,42.3,29.81,SW,225,2.5,6.9,82,0.00,,,0.01,WUHU216HW,2012-10-24 00:32:00,
2012-10-23 17:37:00,47.5,42.6,29.81,WSW,248,2.7,6.9,83,0.00,,,0.01,WUHU216HW,2012-10-24 00:37:00,
2012-10-23 17:42:00,47.3,42.5,29.81,West,270,0.9,6.3,83,0.00,,,0.01,WUHU216HW,2012-10-24 00:42:00,
2012-10-23 17:47:00,47.2,42.3,29.81,WSW,248,1.8,4.7,83,0.00,,,0.01,WUHU216HW,2012-10-24 00:47:00,
2012-10-23 17:52:00,47.2,42.3,29.81,NW,315,0.9,4.7,83,0.00,,,0.01,WUHU216HW,2012-10-24 00:52:00,
2012-10-23 17:57:00,47.2,42.3,29.81,WSW,248,1.3,2.9,83,0.00,,,0.01,WUHU216HW,2012-10-24 00:57:00,
2012-10-23 18:02:00,47.0,42.1,29.81,WSW,248,2.5,3.4,83,0.00,,,0.01,WUHU216HW,2012-10-24 01:02:00,
2012-10-23 18:07:00,46.8,42.0,29.81,WSW,248,1.3,3.4,83,0.00,,,0.01,WUHU216HW,2012-10-24 01:07:00,
2012-10-23 18:12:00,46.6,42.0,29.81,SW,225,1.6,3.4,84,0.00,,,0.01,WUHU216HW,2012-10-24 01:12:00,
2012-10-23 18:17:00,46.6,42.0,29.81,SW,225,0.9,2.0,84,0.00,,,0.01,WUHU216HW,2012-10-24 01:17:00,
2012-10-23 18:22:00,46.4,42.0,29.81,SW,225,0.7,2.0,84,0.00,,,0.01,WUHU216HW,2012-10-24 01:22:00,
2012-10-23 18:27:00,46.3,41.8,29.81,SSW,203,0.0,1.1,84,0.00,,,0.01,WUHU216HW,2012-10-24 01:27:00,
2012-10-23 18:32:00,46.3,42.0,29.81,SSW,203,0.4,0.9,85,0.00,,,0.01,WUHU216HW,2012-10-24 01:32:00,
2012-10-23 18:37:00,46.1,41.9,29.81,SSW,203,1.1,1.1,85,0.00,,,0.01,WUHU216HW,2012-10-24 01:37:00,
2012-10-23 18:42:00,45.9,41.7,29.81,SSW,203,0.7,1.1,85,0.00,,,0.01,WUHU216HW,2012-10-24 01:42:00,
2012-10-23 18:47:00,45.9,41.7,29.81,SW,225,1.1,1.1,85,0.00,,,0.01,WUHU216HW,2012-10-24 01:47:00,
2012-10-23 18:52:00,45.7,41.5,29.81,SW,225,0.2,1.3,85,0.00,,,0.01,WUHU216HW,2012-10-24 01:52:00,
2012-10-23 18:57:00,45.7,41.5,29.81,SW,225,1.1,1.3,85,0.00,,,0.01,WUHU216HW,2012-10-24 01:57:00,
2012-10-23 19:02:00,45.7,41.8,29.81,SW,225,0.4,1.3,86,0.00,,,0.01,WUHU216HW,2012-10-24 02:02:00,
2012-10-23 19:07:00,45.5,41.6,29.81,WSW,248,1.1,1.8,86,0.00,,,0.01,WUHU216HW,2012-10-24 02:07:00,
2012-10-23 19:12:00,45.4,41.4,29.81,WSW,248,1.8,1.8,86,0.00,,,0.01,WUHU216HW,2012-10-24 02:12:00,
2012-10-23 19:17:00,45.2,41.2,29.81,West,270,2.0,2.5,86,0.00,,,0.01,WUHU216HW,2012-10-24 02:17:00,
2012-10-23 19:22:00,45.0,41.0,29.81,WSW,248,1.1,2.5,86,0.00,,,0.01,WUHU216HW,2012-10-24 02:22:00,
2012-10-23 19:27:00,45.0,41.4,29.81,WSW,248,1.6,2.5,87,0.00,,,0.01,WUHU216HW,2012-10-24 02:27:00,
2012-10-23 19:32:00,45.0,41.4,29.81,WSW,248,1.8,2.5,87,0.00,,,0.01,WUHU216HW,2012-10-24 02:32:00,
2012-10-23 19:37:00,45.0,41.4,29.81,WSW,248,0.4,2.2,87,0.00,,,0.01,WUHU216HW,2012-10-24 02:37:00,
2012-10-23 19:42:00,45.0,41.4,29.81,WSW,248,0.7,1.6,87,0.00,,,0.01,WUHU216HW,2012-10-24 02:42:00,
2012-10-23 19:47:00,44.8,41.2,29.81,WSW,248,1.1,1.6,87,0.00,,,0.01,WUHU216HW,2012-10-24 02:47:00,
2012-10-23 19:52:00,44.6,41.1,29.81,WSW,248,1.3,2.0,87,0.00,,,0.01,WUHU216HW,2012-10-24 02:52:00,
2012-10-23 19:57:00,44.6,41.1,29.82,WSW,248,0.4,2.0,87,0.00,,,0.01,WUHU216HW,2012-10-24 02:57:00,
2012-10-23 20:02:00,44.6,41.3,29.82,WSW,248,1.8,1.8,88,0.00,,,0.01,WUHU216HW,2012-10-24 03:02:00,
2012-10-23 20:07:00,44.6,41.3,29.81,WSW,248,0.7,1.8,88,0.00,,,0.01,WUHU216HW,2012-10-24 03:07:00,
2012-10-23 20:12:00,44.6,41.3,29.81,WSW,248,1.8,1.8,88,0.00,,,0.01,WUHU216HW,2012-10-24 03:12:00,
2012-10-23 20:17:00,44.6,41.3,29.81,WSW,248,1.3,1.8,88,0.00,,,0.01,WUHU216HW,2012-10-24 03:17:00,
2012-10-23 20:22:00,44.5,41.1,29.81,WSW,248,0.9,1.8,88,0.00,,,0.01,WUHU216HW,2012-10-24 03:22:00,
2012-10-23 20:27:00,44.5,41.1,29.81,WSW,248,1.3,1.6,88,0.00,,,0.01,WUHU216HW,2012-10-24 03:27:00,
2012-10-23 20:32:00,44.5,41.1,29.81,WSW,248,1.1,1.3,88,0.00,,,0.01,WUHU216HW,2012-10-24 03:32:00,
2012-10-23 20:37:00,44.5,41.1,29.81,WSW,248,0.7,1.3,88,0.00,,,0.01,WUHU216HW,2012-10-24 03:37:00,
2012-10-23 20:42:00,44.5,41.1,29.81,West,270,1.3,1.3,88,0.00,,,0.01,WUHU216HW,2012-10-24 03:42:00,
2012-10-23 20:47:00,44.5,41.1,29.81,West,270,1.6,2.0,88,0.00,,,0.01,WUHU216HW,2012-10-24 03:47:00,
2012-10-23 20:52:00,44.5,41.1,29.81,West,270,0.9,2.0,88,0.00,,,0.01,WUHU216HW,2012-10-24 03:52:00,
2012-10-23 20:57:00,44.5,41.1,29.81,West,270,1.1,1.8,88,0.00,,,0.01,WUHU216HW,2012-10-24 03:57:00,
2012-10-23 21:00:00,44.5,41.5,29.81,West,270,1.1,1.8,89,0.00,,,0.01,WUHU216HW,2012-10-24 04:00:00,
2012-10-23 21:05:00,44.5,41.1,29.82,West,270,0.7,1.1,88,0.00,,,0.01,WUHU216HW,2012-10-24 04:05:00,
2012-10-23 21:10:00,44.3,41.0,29.82,West,270,1.1,1.1,88,0.00,,,0.01,WUHU216HW,2012-10-24 04:10:00,
2012-10-23 21:15:00,44.3,41.3,29.81,West,270,0.4,1.1,89,0.00,,,0.01,WUHU216HW,2012-10-24 04:15:00,
2012-10-23 21:20:00,44.3,41.3,29.81,West,270,0.9,1.1,89,0.00,,,0.01,WUHU216HW,2012-10-24 04:20:00,
2012-10-23 21:25:00,44.3,41.0,29.81,West,270,0.7,0.9,88,0.00,,,0.01,WUHU216HW,2012-10-24 04:25:00,
2012-10-23 21:30:00,44.3,41.0,29.82,West,270,1.1,1.1,88,0.00,,,0.01,WUHU216HW,2012-10-24 04:30:00,
2012-10-23 21:35:00,44.3,41.0,29.81,West,270,1.3,1.8,88,0.00,,,0.01,WUHU216HW,2012-10-24 04:35:00,
2012-10-23 21:40:00,44.5,41.1,29.81,West,270,0.7,1.8,88,0.00,,,0.01,WUHU216HW,2012-10-24 04:40:00,
2012-10-23 21:45:00,44.3,41.0,29.82,West,270,1.1,1.3,88,0.00,,,0.01,WUHU216HW,2012-10-24 04:45:00,
2012-10-23 21:50:00,44.3,41.0,29.81,West,270,1.1,1.3,88,0.00,,,0.01,WUHU216HW,2012-10-24 04:50:00,
2012-10-23 21:55:00,44.3,41.0,29.81,West,270,0.0,1.3,88,0.00,,,0.01,WUHU216HW,2012-10-24 04:55:00,
2012-10-23 22:00:00,44.3,41.0,29.81,West,270,0.0,1.3,88,0.00,,,0.01,WUHU216HW,2012-10-24 05:00:00,
2012-10-23 22:05:00,44.3,41.0,29.81,West,270,1.3,1.3,88,0.00,,,0.01,WUHU216HW,2012-10-24 05:05:00,
2012-10-23 22:10:00,44.3,41.3,29.81,West,270,1.8,2.5,89,0.00,,,0.01,WUHU216HW,2012-10-24 05:10:00,
2012-10-23 22:15:00,44.3,41.3,29.81,WSW,248,0.7,3.1,89,0.00,,,0.01,WUHU216HW,2012-10-24 05:15:00,
2012-10-23 22:20:00,44.3,41.3,29.81,WSW,248,0.7,3.1,89,0.00,,,0.01,WUHU216HW,2012-10-24 05:20:00,
2012-10-23 22:25:00,44.3,41.3,29.81,WSW,248,0.0,1.3,89,0.00,,,0.01,WUHU216HW,2012-10-24 05:25:00,
2012-10-23 22:30:00,44.3,41.3,29.81,WSW,248,0.7,1.3,89,0.00,,,0.01,WUHU216HW,2012-10-24 05:30:00,
2012-10-23 22:35:00,44.3,41.3,29.81,WSW,248,0.7,1.3,89,0.00,,,0.01,WUHU216HW,2012-10-24 05:35:00,
2012-10-23 22:40:00,44.5,41.5,29.82,WSW,248,0.0,1.1,89,0.00,,,0.01,WUHU216HW,2012-10-24 05:40:00,
2012-10-23 22:45:00,44.5,41.5,29.82,WSW,248,0.0,1.1,89,0.00,,,0.01,WUHU216HW,2012-10-24 05:45:00,
2012-10-23 22:50:00,44.5,41.5,29.82,WSW,248,0.0,0.0,89,0.00,,,0.01,WUHU216HW,2012-10-24 05:50:00,
2012-10-23 22:55:00,44.5,41.5,29.82,WSW,248,0.0,0.0,89,0.00,,,0.01,WUHU216HW,2012-10-24 05:55:00,
2012-10-23 23:00:00,44.5,41.5,29.82,WSW,248,0.0,0.0,89,0.00,,,0.01,WUHU216HW,2012-10-24 06:00:00,
2012-10-23 23:05:00,44.5,41.5,29.82,WSW,248,0.7,1.3,89,0.01,,,0.02,WUHU216HW,2012-10-24 06:05:00,
2012-10-23 23:10:00,44.6,41.9,29.82,WSW,248,1.1,1.3,90,0.01,,,0.02,WUHU216HW,2012-10-24 06:10:00,
2012-10-23 23:15:00,44.6,41.9,29.82,WSW,248,0.9,1.1,90,0.01,,,0.02,WUHU216HW,2012-10-24 06:15:00,
2012-10-23 23:20:00,44.6,42.2,29.82,WSW,248,0.9,1.1,91,0.01,,,0.02,WUHU216HW,2012-10-24 06:20:00,
2012-10-23 23:25:00,44.6,41.9,29.82,WSW,248,0.7,1.3,90,0.01,,,0.02,WUHU216HW,2012-10-24 06:25:00,
2012-10-23 23:30:00,44.6,42.2,29.82,WSW,248,0.9,1.3,91,0.02,,,0.03,WUHU216HW,2012-10-24 06:30:00,
2012-10-23 23:35:00,44.6,42.2,29.82,WSW,248,0.7,1.1,91,0.03,,,0.04,WUHU216HW,2012-10-24 06:35:00,
2012-10-23 23:40:00,44.6,42.2,29.82,WSW,248,0.0,1.1,91,0.03,,,0.04,WUHU216HW,2012-10-24 06:40:00,
2012-10-23 23:45:00,44.6,42.2,29.82,WSW,248,0.0,0.4,91,0.03,,,0.04,WUHU216HW,2012-10-24 06:45:00,
2012-10-23 23:50:00,44.6,42.2,29.82,WSW,248,0.4,0.9,91,0.03,,,0.04,WUHU216HW,2012-10-24 06:50:00,
2012-10-23 23:55:00,44.6,42.2,29.82,WSW,248,0.0,0.9,91,0.04,,,0.05,WUHU216HW,2012-10-24 06:55:00,